[[{"header":{"parameterUnit":"m.s-1","parameterCategory":2,"la1":30.2991,"la2":30.254,"lo1":-89.0895,"lo2":-89.0444,"dy":0.0017,"dx":0.0017,"nx":28,"ny":28,"refTime":"2023-07-31T21:00:00:Z","depth":"0","parameterNumber":2,"parameterNumberName":"U-component_of_CURRENTS"},"data":[0,0,0,0,0,0,0,0,0,0,0,0,0,0,0,0,0,0,0,0,0,0,0,0,0,0,0,0,0,0,0,0,0,0,0,0,0,0,0,0,0,0,0,0,0,0,0,0,0,0,0,0,0,0,0,0,0,0,-0.3568,-0.3567,0,-0.3509,-0.3508,-0.3508,-0.3637,-0.3642,-0.3646,-0.365,-0.3933,-0.3937,-0.394,0,0,0,0,0,0,0,0,0,0,0,0,0,-0.342,-0.3425,-0.3568,-0.3567,-0.3566,-0.3509,-0.3508,-0.3507,-0.3637,-0.3642,-0.3647,-0.3652,-0.3932,-0.3936,-0.3941,0,0,0,0,0,0,0,0,0,0,0,0,0,-0.3436,-0.3426,-0.3568,-0.3624,-0.3629,-0.3509,-0.3508,-0.3507,-0.3636,-0.3642,-0.3648,-0.3654,-0.3931,-0.3936,-0.3941,-0.3849,0,0,-0.3958,-0.396,0,0,0,0,0,0,0,0,-0.3435,-0.3441,-0.3617,-0.362,-0.3625,-0.3587,-0.356,-0.3639,-0.3634,-0.3633,-0.365,-0.3657,-0.3845,-0.3857,-0.3827,-0.3863,-0.3875,-0.3959,-0.3962,-0.3964,-0.3966,0,0,0,0,0,0,0,-0.3435,-0.3442,-0.3545,-0.3615,-0.362,-0.3524,-0.3537,-0.3572,-0.3711,-0.3633,-0.3643,-0.3634,-0.3851,-0.3821,-0.3836,-0.3879,-0.3958,-0.3963,-0.3967,-0.3969,-0.3902,-0.3897,0,0,0,0,0,0,-0.3455,-0.3443,-0.3546,-0.3543,-0.3544,-0.3524,-0.3537,-0.3593,-0.3703,-0.3723,-0.3629,-0.364,-0.3809,-0.3829,-0.3847,-0.379,-0.3964,-0.3969,-0.3972,-0.3907,-0.3901,-0.3895,0,0,0,0,0,0,-0.3453,-0.3467,-0.3549,-0.3487,-0.3491,-0.3523,-0.3581,-0.3588,-0.359,-0.3696,-0.3724,-0.3628,-0.3815,-0.384,-0.3903,-0.3802,-0.3972,-0.3977,-0.3913,-0.3905,-0.3898,-0.3649,0,0,0,0,0,0,-0.345,-0.3468,-0.3499,-0.3491,-0.3496,-0.3464,-0.3575,-0.3583,-0.3574,-0.3589,-0.3703,-0.3734,-0.3822,-0.3894,-0.3909,-0.3813,-0.3981,-0.3919,-0.3909,-0.39,-0.3663,-0.3634,-0.3608,0,0,0,0,0,-0.3446,-0.3455,-0.3502,-0.3513,-0.3546,-0.346,-0.345,-0.3491,-0.3567,-0.3525,-0.3639,-0.3732,-0.3843,-0.3896,-0.3914,-0.3817,-0.3924,-0.3912,-0.3901,-0.3676,-0.364,-0.3609,0,0,0,0,0,0,-0.3361,-0.3468,-0.3521,-0.3555,-0.3507,-0.3483,-0.3443,-0.3476,-0.3516,-0.3564,-0.3695,-0.3729,-0.3744,-0.3804,-0.3859,-0.3762,-0.3884,-0.3876,-0.3707,-0.3674,-0.3646,-0.3691,-0.3986,0,0,0,0,0,-0.3366,-0.3433,-0.3451,-0.3457,-0.3445,-0.3443,-0.3416,-0.3438,-0.3471,-0.3494,-0.3561,-0.3638,-0.3688,-0.3713,-0.3763,-0.3714,-0.3731,-0.3651,-0.3623,-0.3599,-0.3642,-0.3604,-0.3578,-0.3858,-0.3858,-0.3858,0,0,-0.3322,-0.3389,-0.342,-0.3445,-0.3424,-0.3378,-0.3443,-0.3387,-0.3355,-0.352,-0.35,-0.3562,-0.3663,-0.3622,-0.3625,-0.3672,-0.3488,-0.3585,-0.3564,-0.3622,-0.359,-0.3563,-0.354,-0.385,-0.3851,-0.3853,0,0,-0.3229,-0.3332,-0.3341,-0.3329,-0.3312,-0.3301,-0.3289,-0.3257,-0.3257,-0.3228,-0.3346,-0.335,-0.3399,-0.3424,-0.3461,-0.3301,-0.3364,-0.3294,-0.3175,-0.3132,-0.311,-0.3092,-0.2914,-0.2883,-0.3256,-0.3255,-0.3255,0,-0.3154,-0.3213,-0.3293,-0.3281,-0.3259,-0.3276,-0.3216,-0.319,-0.3174,-0.3167,-0.3206,-0.3241,-0.3298,-0.3285,-0.3228,-0.3238,-0.3209,-0.3295,-0.3099,-0.3082,-0.3068,-0.2893,-0.2861,-0.3242,-0.3244,-0.3245,-0.3246,0,-0.3059,-0.3112,-0.3085,-0.313,-0.3102,-0.3031,-0.3035,-0.2989,-0.2992,-0.2982,-0.295,-0.299,-0.3034,-0.2983,-0.3076,-0.2978,-0.2976,-0.3085,-0.319,-0.3025,-0.2848,-0.2819,-0.3223,-0.3228,-0.3232,-0.3235,0,0,-0.2842,-0.2998,-0.2981,-0.3027,-0.3026,-0.2992,-0.293,-0.2867,-0.2845,-0.2795,-0.2734,-0.2747,-0.2789,-0.2832,-0.2879,-0.2813,-0.26,-0.2901,-0.2905,-0.2734,-0.2412,-0.224,-0.2193,-0.27,-0.2698,-0.2696,-0.2269,0,-0.2704,-0.2723,-0.2807,-0.2773,-0.2781,-0.2818,-0.2761,-0.2738,-0.2703,-0.2638,-0.2644,-0.2617,-0.2726,-0.2711,-0.2678,-0.2676,-0.2545,-0.2701,-0.2596,-0.259,-0.2469,-0.2163,-0.1961,-0.1556,-0.2242,-0.2238,-0.2235,0,-0.255,-0.2616,-0.2596,-0.27,-0.269,-0.2671,-0.2628,-0.2585,-0.2535,-0.2501,-0.2493,-0.2513,-0.2439,-0.2533,-0.242,-0.2531,-0.2461,-0.2411,-0.2396,-0.2341,-0.2371,-0.1864,-0.1481,-0.1635,-0.2193,-0.2196,-0.2199,0,-0.2391,-0.2453,-0.2459,-0.2485,-0.2574,-0.2568,-0.2579,-0.2551,-0.2445,-0.2423,-0.2288,-0.2335,-0.2212,-0.2252,-0.2181,-0.2303,-0.1994,-0.2143,-0.1879,-0.186,-0.1724,-0.17,-0.1509,-0.2006,-0.2007,-0.2008,-0.2009,0,-0.2234,-0.2234,-0.2419,-0.2436,-0.2417,-0.2521,-0.2409,-0.2448,-0.2332,-0.2124,-0.2235,-0.1993,-0.2142,-0.1992,-0.2059,-0.1829,-0.1888,-0.1784,-0.1739,-0.1607,-0.1579,-0.1752,-0.19,-0.1992,-0.1995,-0.1999,-0.2001,0,-0.2069,-0.2167,-0.2229,-0.236,-0.2368,-0.2389,-0.2287,-0.2146,-0.212,-0.1831,-0.1778,-0.1643,-0.1438,-0.1512,-0.1432,-0.1516,-0.1388,-0.1327,-0.1088,-0.1026,-0.0995,-0.1134,-0.0868,-0.0839,-0.0957,-0.0951,-0.0945,0,-0.1981,-0.1999,-0.2172,-0.2136,-0.2194,-0.2169,-0.2037,-0.2043,-0.1855,-0.1532,-0.1329,-0.1058,-0.0773,-0.0599,-0.0698,-0.0683,-0.0933,-0.0539,-0.0765,-0.0877,-0.1002,-0.1127,-0.1137,-0.0394,-0.0384,-0.0376,-0.037,0,-0.1822,-0.1911,-0.1999,-0.1917,-0.185,-0.1712,-0.1582,-0.1414,-0.1277,-0.105,-0.0646,-0.0399,-0.0107,0.007,0.0052,-0.0029,-0.0567,-0.0369,-0.0575,-0.0587,-0.0621,-0.0609,-0.073,-0.0298,-0.0306,-0.0311,-0.0315,-0.0317,-0.1688,-0.174,-0.1783,-0.1662,-0.1531,-0.1243,-0.1087,-0.0897,-0.0618,-0.0318,-0.0146,0.015,0.0485,0.0549,0.0401,0.023,0.0099,0.0102,-0.0042,-0.0146,-0.0183,-0.0076,0.0407,0.0404,0.0401,0.0399,0.0397,0,-0.153,-0.153,-0.1417,-0.1308,-0.0997,-0.0996,-0.0699,-0.053,-0.0224,-0.0042,0.0213,0.0555,0.0862,0.0833,0.0846,0.058,0.0347,0.0349,0.0146,0.0125,0.0193,0.0138,0.069,0.069,0.0691,0.0691,0.0691,0.0691,-0.1441,-0.1334,-0.1267,-0.076,-0.0606,-0.0251,-0.008,0.0044,0.0139,0.0349,0.0421,0.0483,0.0756,0.0928,0.072,0.0544,0.021,0.0261,0.0024,-0.0073,-0.0114,-0.0153,-0.0242,0.0222,0.0221,0.0059,0.0057,0.0055]},{"header":{"parameterUnit":"m.s-1","parameterCategory":2,"la1":30.2991,"la2":30.254,"lo1":-89.0895,"lo2":-89.0444,"dy":0.0017,"dx":0.0017,"nx":28,"ny":28,"refTime":"2023-07-31T21:00:00:Z","depth":"0","parameterNumber":3,"parameterNumberName":"V-component_of_CURRENTS"},"data":[0,0,0,0,0,0,0,0,0,0,0,0,0,0,0,0,0,0,0,0,0,0,0,0,0,0,0,0,0,0,0,0,0,0,0,0,0,0,0,0,0,0,0,0,0,0,0,0,0,0,0,0,0,0,0,0,0,0,-0.0348,-0.0346,0,-0.0121,-0.0118,-0.0115,0.0037,0.0038,0.0038,0.0039,0.0352,0.036,0.0367,0,0,0,0,0,0,0,0,0,0,0,0,0,-0.0557,-0.0554,-0.0349,-0.0346,-0.0344,-0.0121,-0.0118,-0.0114,0.0037,0.0038,0.0038,0.0039,0.035,0.0359,0.0368,0,0,0,0,0,0,0,0,0,0,0,0,0,-0.0408,-0.0553,-0.0349,-0.0244,-0.0233,-0.0122,-0.0118,-0.0113,0.0037,0.0038,0.0039,0.004,0.0347,0.0358,0.0369,0.042,0,0,0.0405,0.041,0,0,0,0,0,0,0,0,-0.0417,-0.04,-0.0262,-0.0251,-0.0239,-0.0073,-0.0076,0.0068,0.0036,-0.0062,0.0039,0.004,0.0215,0.0237,0.0282,0.0435,0.0448,0.0406,0.0413,0.0418,0.0421,0,0,0,0,0,0,0,-0.0427,-0.0409,-0.0254,-0.026,-0.0245,-0.0176,-0.0155,-0.0048,0.0073,-0.0053,-0.0042,-0.0024,0.0222,0.027,0.0291,0.0453,0.0405,0.0416,0.0423,0.0427,0.0658,0.0657,0,0,0,0,0,0,-0.0469,-0.0419,-0.0262,-0.0248,-0.0332,-0.0174,-0.0149,-0.0124,0.007,0.0099,-0.0025,-0.0018,0.025,0.0277,0.0302,0.0335,0.0417,0.0428,0.0435,0.0659,0.0658,0.0657,0,0,0,0,0,0,-0.0475,-0.0457,-0.0271,-0.0332,-0.0304,-0.0173,-0.0144,-0.012,-0.0077,0.009,0.0121,-0.0009,0.0252,0.0286,0.0403,0.035,0.0434,0.0444,0.066,0.0659,0.0658,0.0427,0,0,0,0,0,0,-0.0481,-0.046,-0.0462,-0.0335,-0.0302,-0.023,-0.0145,-0.0116,-0.0069,-0.0057,0.0114,0.0145,0.0255,0.0385,0.0415,0.0368,0.0453,0.0661,0.0659,0.0658,0.0435,0.0418,0.0403,0,0,0,0,0,-0.0489,-0.05,-0.0463,-0.0445,-0.0306,-0.0232,-0.0209,-0.0109,-0.007,-0.0064,0.0069,0.0139,0.0395,0.0395,0.043,0.0384,0.0662,0.066,0.0658,0.0443,0.0421,0.0403,0,0,0,0,0,0,-0.0587,-0.0482,-0.0439,-0.0416,-0.0343,-0.0208,-0.0194,-0.0128,-0.002,-0.0004,0.0153,0.0193,0.0264,0.0368,0.0363,0.0448,0.053,0.0535,0.0355,0.0336,0.032,0.0259,0.0463,0,0,0,0,0,-0.0614,-0.0596,-0.0486,-0.0471,-0.0442,-0.0324,-0.0283,-0.0217,-0.0105,-0.0057,0.0059,0.0184,0.0284,0.0345,0.045,0.0513,0.0601,0.0502,0.0485,0.047,0.0446,0.0539,0.0528,0.0651,0.0651,0.0651,0,0,-0.0645,-0.059,-0.0576,-0.0492,-0.0424,-0.0397,-0.0296,-0.0249,-0.0226,-0.0039,0.0023,0.0133,0.029,0.0352,0.0391,0.0434,0.0483,0.0468,0.0454,0.0437,0.0536,0.0524,0.0513,0.065,0.065,0.065,0,0,-0.0713,-0.0655,-0.0666,-0.0617,-0.0538,-0.0465,-0.0465,-0.0347,-0.0297,-0.0215,-0.0092,-0.0018,0.0156,0.0233,0.0302,0.0261,0.039,0.0296,0.0169,0.0259,0.0248,0.0241,0.0331,0.0333,0.029,0.029,0.0289,0,-0.0756,-0.0744,-0.0661,-0.0661,-0.0625,-0.0511,-0.051,-0.045,-0.0313,-0.0265,-0.0225,-0.0007,0.0087,0.0173,0.0134,0.0215,0.0304,0.0223,0.0233,0.0227,0.0223,0.0318,0.0323,0.0278,0.028,0.0281,0.0282,0,-0.0819,-0.0815,-0.0821,-0.0779,-0.0739,-0.072,-0.0627,-0.0585,-0.0512,-0.0431,-0.0338,-0.0205,-0.0069,-0.0057,0.0021,0.0034,0.0119,0.0193,0.0268,0.0195,0.0302,0.0311,0.0262,0.0266,0.027,0.0272,0,0,-0.0881,-0.0869,-0.0867,-0.0847,-0.0793,-0.0739,-0.0739,-0.066,-0.0579,-0.0532,-0.0435,-0.0381,-0.0303,-0.0224,-0.0124,-0.0089,-0.0081,0.001,0.002,0.0072,0.0131,0.0151,0.0165,0.0007,0.0008,0.0008,0.0214,0,-0.0946,-0.0978,-0.0951,-0.0947,-0.0937,-0.0849,-0.0805,-0.0726,-0.0631,-0.0509,-0.0451,-0.0309,-0.0362,-0.0258,-0.0269,-0.0077,-0.0065,-0.0144,0.0218,0.0228,0.0231,0.0172,0.0276,0.0464,0.0224,0.0226,0.0227,0,-0.1005,-0.1007,-0.1047,-0.0961,-0.0938,-0.0918,-0.0776,-0.0709,-0.0568,-0.0485,-0.0432,-0.032,-0.0287,-0.0277,-0.0149,-0.0183,-0.0089,0.0017,0.0031,0.0131,0.0263,0.0504,0.0492,0.0519,0.0243,0.0242,0.0241,0,-0.1051,-0.1048,-0.1075,-0.1061,-0.0972,-0.0944,-0.0853,-0.071,-0.0543,-0.0445,-0.0277,-0.0285,-0.0128,-0.0117,-0.0014,-0.004,0.0177,0.0208,0.0298,0.0304,0.05,0.0521,0.0533,0.0274,0.0273,0.0273,0.0272,0,-0.1115,-0.1111,-0.1089,-0.1091,-0.0976,-0.0933,-0.0737,-0.0663,-0.0449,-0.0188,-0.024,-0.0009,-0.007,0.005,0.0039,0.0181,0.0212,0.0252,0.0345,0.0423,0.0433,0.0557,0.0561,0.0281,0.0279,0.0277,0.0276,0,-0.1159,-0.1175,-0.1152,-0.1081,-0.1001,-0.0911,-0.0583,-0.0382,-0.0262,0.0079,0.0135,0.0263,0.0376,0.0309,0.042,0.0364,0.0499,0.0484,0.0551,0.0642,0.0697,0.0686,0.082,0.09,0.0615,0.0616,0.0618,0,-0.1176,-0.1196,-0.1102,-0.0961,-0.0915,-0.0711,-0.0468,-0.0299,-0.0047,0.0311,0.0517,0.0659,0.0829,0.0891,0.076,0.0699,0.0676,0.0771,0.0686,0.0679,0.074,0.0711,0.0768,0.0883,0.0886,0.0889,0.0891,0,-0.117,-0.1169,-0.1123,-0.0815,-0.0594,-0.0316,-0.0005,0.0198,0.0474,0.0738,0.1109,0.1241,0.127,0.1222,0.1028,0.1001,0.0825,0.0826,0.084,0.0929,0.089,0.1024,0.0758,0.0915,0.0913,0.0911,0.091,0.0909,-0.1101,-0.1019,-0.0877,-0.0551,-0.0286,0.0076,0.0327,0.0626,0.1001,0.138,0.1523,0.1755,0.1582,0.1334,0.1253,0.1116,0.1082,0.1103,0.1093,0.1064,0.1104,0.0845,0.1076,0.1075,0.1074,0.1073,0.1072,0,-0.0927,-0.078,-0.0508,-0.0131,0.0228,0.0298,0.071,0.0939,0.1334,0.1601,0.1897,0.2045,0.1862,0.1615,0.1353,0.1344,0.1358,0.1356,0.136,0.1409,0.1234,0.1201,0.1445,0.1445,0.1445,0.1445,0.1445,0.1445,-0.0789,-0.0503,-0.031,0.0334,0.0589,0.1013,0.1213,0.1424,0.1619,0.1996,0.2201,0.2325,0.2121,0.1622,0.1445,0.1481,0.1539,0.1565,0.1552,0.1424,0.1399,0.1375,0.1342,0.1611,0.1612,0.1785,0.1786,0.1787]}],[{"header":{"parameterUnit":"m.s-1","parameterCategory":2,"la1":30.2991,"la2":30.254,"lo1":-89.0895,"lo2":-89.0444,"dy":0.0017,"dx":0.0017,"nx":28,"ny":28,"refTime":"2023-07-31T21:00:00:Z","depth":"2","parameterNumber":2,"parameterNumberName":"U-component_of_CURRENTS"},"data":[0,0,0,0,0,0,0,0,0,0,0,0,0,0,0,0,0,0,0,0,0,0,0,0,0,0,0,0,0,0,0,0,0,0,0,0,0,0,0,0,0,0,0,0,0,0,0,0,0,0,0,0,0,0,0,0,0,0,-0.1648,-0.1649,0,-0.1744,-0.1745,-0.1745,-0.1888,-0.1891,-0.1894,-0.1897,-0.1864,-0.1861,-0.1857,0,0,0,0,0,0,0,0,0,0,0,0,0,-0.1661,-0.1659,-0.1648,-0.165,-0.1651,-0.1744,-0.1745,-0.1746,-0.1888,-0.1891,-0.1895,-0.1898,-0.1866,-0.1861,-0.1857,0,0,0,0,0,0,0,0,0,0,0,0,0,-0.1692,-0.1659,-0.1648,-0.1736,-0.1745,-0.1743,-0.1745,-0.1746,-0.1887,-0.1891,-0.1896,-0.19,-0.1867,-0.1862,-0.1857,-0.1737,0,0,-0.184,-0.1838,0,0,0,0,0,0,0,0,-0.169,-0.1691,-0.1722,-0.173,-0.174,-0.1812,-0.1738,-0.1738,-0.1886,-0.1829,-0.1897,-0.1902,-0.1834,-0.1832,-0.1837,-0.1736,-0.1735,-0.184,-0.1837,-0.1834,-0.1833,0,0,0,0,0,0,0,-0.1687,-0.1688,-0.1682,-0.1723,-0.1734,-0.1796,-0.1804,-0.1739,-0.1801,-0.1834,-0.1846,-0.1861,-0.1839,-0.1841,-0.1837,-0.1734,-0.184,-0.1835,-0.1832,-0.183,-0.1683,-0.1682,0,0,0,0,0,0,-0.1674,-0.1684,-0.1679,-0.1685,-0.173,-0.1792,-0.1801,-0.1781,-0.1805,-0.1815,-0.1858,-0.1868,-0.1848,-0.1843,-0.1836,-0.1835,-0.1834,-0.1829,-0.1826,-0.1683,-0.1682,-0.1682,0,0,0,0,0,0,-0.1673,-0.1671,-0.1675,-0.1693,-0.1699,-0.1788,-0.1764,-0.1781,-0.1812,-0.1825,-0.1832,-0.1876,-0.1852,-0.1843,-0.1806,-0.183,-0.1827,-0.1822,-0.1684,-0.1683,-0.1682,-0.1743,0,0,0,0,0,0,-0.1672,-0.1669,-0.1664,-0.169,-0.1697,-0.168,-0.1761,-0.178,-0.1816,-0.183,-0.184,-0.1842,-0.1854,-0.1814,-0.1801,-0.1823,-0.1818,-0.1685,-0.1684,-0.1682,-0.1742,-0.1745,-0.1747,0,0,0,0,0,-0.1672,-0.1656,-0.1661,-0.1663,-0.1681,-0.1679,-0.1687,-0.1764,-0.1812,-0.181,-0.1831,-0.1843,-0.1798,-0.1807,-0.1792,-0.1814,-0.1686,-0.1684,-0.1683,-0.1741,-0.1744,-0.1747,0,0,0,0,0,0,-0.1675,-0.1669,-0.1677,-0.1664,-0.1669,-0.1705,-0.1725,-0.1755,-0.1769,-0.1794,-0.1807,-0.1806,-0.1796,-0.1768,-0.1779,-0.1766,-0.1751,-0.1747,-0.1801,-0.1803,-0.1806,-0.1819,-0.1814,0,0,0,0,0,-0.166,-0.1637,-0.1643,-0.163,-0.1632,-0.1668,-0.1684,-0.1723,-0.1738,-0.1754,-0.1762,-0.1766,-0.1765,-0.1758,-0.1741,-0.1696,-0.1664,-0.1706,-0.1708,-0.171,-0.1709,-0.1673,-0.1672,-0.1676,-0.1676,-0.1676,0,0,-0.1655,-0.1653,-0.164,-0.1628,-0.1643,-0.166,-0.1689,-0.1706,-0.174,-0.1735,-0.1771,-0.176,-0.1752,-0.1748,-0.1739,-0.1734,-0.1688,-0.1708,-0.1711,-0.1708,-0.1671,-0.1671,-0.1671,-0.1675,-0.1675,-0.1676,0,0,-0.1646,-0.1627,-0.1615,-0.1619,-0.1637,-0.1656,-0.1656,-0.1681,-0.1715,-0.171,-0.1748,-0.1744,-0.1716,-0.174,-0.1744,-0.1723,-0.17,-0.1722,-0.1744,-0.171,-0.171,-0.1709,-0.1659,-0.1653,-0.1725,-0.1725,-0.1725,0,-0.1652,-0.1636,-0.1613,-0.1622,-0.1646,-0.1654,-0.1673,-0.1691,-0.1708,-0.1719,-0.1732,-0.1729,-0.1724,-0.1741,-0.1763,-0.1733,-0.1698,-0.1746,-0.1715,-0.1714,-0.1713,-0.1661,-0.1654,-0.1728,-0.1727,-0.1727,-0.1727,0,-0.1641,-0.1647,-0.1643,-0.1654,-0.1663,-0.1674,-0.1697,-0.1706,-0.1735,-0.1755,-0.1761,-0.1749,-0.1751,-0.1759,-0.1761,-0.1759,-0.1732,-0.1725,-0.1718,-0.1716,-0.1661,-0.1653,-0.1732,-0.1731,-0.173,-0.1729,0,0,-0.1606,-0.1633,-0.1634,-0.1655,-0.1688,-0.1686,-0.1728,-0.175,-0.1769,-0.1781,-0.1795,-0.1813,-0.1798,-0.1798,-0.1795,-0.1776,-0.1744,-0.1753,-0.1749,-0.1718,-0.1651,-0.155,-0.1531,-0.1735,-0.1734,-0.1733,-0.1614,0,-0.1614,-0.1641,-0.1655,-0.1691,-0.171,-0.1734,-0.1763,-0.1784,-0.1796,-0.1798,-0.1803,-0.1799,-0.1818,-0.1806,-0.1799,-0.175,-0.1726,-0.1776,-0.1642,-0.1638,-0.1562,-0.152,-0.1441,-0.1321,-0.1606,-0.1605,-0.1604,0,-0.16,-0.1627,-0.1667,-0.1711,-0.1718,-0.174,-0.177,-0.1795,-0.1806,-0.1807,-0.1811,-0.18,-0.179,-0.1789,-0.1727,-0.1756,-0.171,-0.1674,-0.1668,-0.1547,-0.1522,-0.1367,-0.1295,-0.159,-0.1591,-0.1592,-0.1593,0,-0.1578,-0.1628,-0.1664,-0.1683,-0.1734,-0.1751,-0.1773,-0.1794,-0.1792,-0.1797,-0.1779,-0.1776,-0.1747,-0.1708,-0.1649,-0.168,-0.1551,-0.1579,-0.1447,-0.1439,-0.133,-0.1313,-0.1524,-0.1524,-0.1524,-0.1525,-0.1525,0,-0.158,-0.16,-0.1653,-0.1672,-0.1681,-0.1734,-0.1731,-0.1748,-0.1758,-0.1746,-0.1771,-0.1753,-0.1724,-0.1658,-0.162,-0.1488,-0.1522,-0.143,-0.1395,-0.1345,-0.1332,-0.1538,-0.1541,-0.152,-0.1521,-0.1522,-0.1523,0,-0.154,-0.1588,-0.1607,-0.1662,-0.1667,-0.1666,-0.1675,-0.1667,-0.1702,-0.1682,-0.1678,-0.1697,-0.1619,-0.1559,-0.1466,-0.1421,-0.132,-0.1268,-0.12,-0.1159,-0.1243,-0.1251,-0.1109,-0.1104,-0.11,-0.1097,-0.1094,0,-0.1524,-0.1539,-0.1563,-0.1546,-0.1564,-0.1569,-0.156,-0.161,-0.1601,-0.1653,-0.1631,-0.1585,-0.1543,-0.136,-0.1241,-0.1096,-0.1185,-0.0948,-0.0999,-0.1217,-0.1198,-0.1212,-0.1225,-0.0879,-0.0874,-0.0871,-0.0868,0,-0.1471,-0.1474,-0.1472,-0.1442,-0.143,-0.142,-0.1425,-0.1414,-0.1487,-0.1486,-0.1507,-0.1496,-0.1364,-0.1197,-0.0997,-0.0908,-0.0964,-0.0869,-0.1091,-0.0996,-0.099,-0.0975,-0.0997,-0.0836,-0.084,-0.0842,-0.0844,-0.0845,-0.1391,-0.1349,-0.1332,-0.1292,-0.128,-0.1263,-0.1222,-0.1254,-0.1241,-0.1227,-0.1323,-0.1248,-0.1241,-0.0881,-0.077,-0.063,-0.0723,-0.0688,-0.0704,-0.0722,-0.0717,-0.0703,-0.0495,-0.0496,-0.0497,-0.0498,-0.0498,0,-0.1255,-0.1216,-0.1179,-0.1125,-0.1077,-0.1122,-0.1111,-0.1066,-0.1027,-0.1028,-0.1014,-0.0874,-0.0753,-0.0705,-0.0474,-0.041,-0.0431,-0.0356,-0.0443,-0.0473,-0.05,-0.049,-0.0204,-0.0203,-0.0202,-0.0201,0,0,-0.117,-0.1075,-0.1055,-0.0931,-0.0907,-0.0819,-0.0797,-0.0766,-0.0735,-0.0662,-0.0604,-0.0645,-0.0692,-0.0474,-0.0413,-0.0292,-0.0365,-0.0223,-0.0461,-0.0595,-0.0621,-0.0688,-0.0702,0,0,0,0,0]},{"header":{"parameterUnit":"m.s-1","parameterCategory":2,"la1":30.2991,"la2":30.254,"lo1":-89.0895,"lo2":-89.0444,"dy":0.0017,"dx":0.0017,"nx":28,"ny":28,"refTime":"2023-07-31T21:00:00:Z","depth":"2","parameterNumber":3,"parameterNumberName":"V-component_of_CURRENTS"},"data":[0,0,0,0,0,0,0,0,0,0,0,0,0,0,0,0,0,0,0,0,0,0,0,0,0,0,0,0,0,0,0,0,0,0,0,0,0,0,0,0,0,0,0,0,0,0,0,0,0,0,0,0,0,0,0,0,0,0,-0.0456,-0.0456,0,-0.0368,-0.0367,-0.0366,-0.0316,-0.0316,-0.0316,-0.0316,-0.0225,-0.0223,-0.0221,0,0,0,0,0,0,0,0,0,0,0,0,0,-0.0523,-0.0522,-0.0456,-0.0456,-0.0455,-0.0369,-0.0367,-0.0366,-0.0316,-0.0316,-0.0316,-0.0316,-0.0226,-0.0223,-0.022,0,0,0,0,0,0,0,0,0,0,0,0,0,-0.0468,-0.0521,-0.0457,-0.0422,-0.0418,-0.0369,-0.0367,-0.0365,-0.0316,-0.0316,-0.0316,-0.0316,-0.0227,-0.0224,-0.022,-0.0194,0,0,-0.0208,-0.0207,0,0,0,0,0,0,0,0,-0.0471,-0.0465,-0.0428,-0.0424,-0.042,-0.0356,-0.0357,-0.0309,-0.0316,-0.0351,-0.0316,-0.0316,-0.0271,-0.0263,-0.0242,-0.019,-0.0186,-0.0208,-0.0206,-0.0204,-0.0203,0,0,0,0,0,0,0,-0.0475,-0.0468,-0.0419,-0.0427,-0.0422,-0.039,-0.0383,-0.0347,-0.0309,-0.0348,-0.0345,-0.034,-0.0268,-0.0246,-0.024,-0.0185,-0.0208,-0.0205,-0.0203,-0.0201,-0.0078,-0.0077,0,0,0,0,0,0,-0.0494,-0.0472,-0.0421,-0.0416,-0.0449,-0.039,-0.0381,-0.0374,-0.0309,-0.03,-0.034,-0.0338,-0.0252,-0.0244,-0.0237,-0.019,-0.0204,-0.0201,-0.0199,-0.0079,-0.0078,-0.0077,0,0,0,0,0,0,-0.0496,-0.0491,-0.0425,-0.0445,-0.0434,-0.0389,-0.0381,-0.0372,-0.0352,-0.0304,-0.0294,-0.033,-0.0252,-0.0242,-0.0195,-0.0187,-0.0199,-0.0196,-0.0081,-0.0079,-0.0078,-0.0106,0,0,0,0,0,0,-0.0498,-0.0492,-0.0492,-0.0446,-0.0434,-0.0395,-0.0381,-0.037,-0.035,-0.0346,-0.0292,-0.0283,-0.0251,-0.0201,-0.0191,-0.0182,-0.0193,-0.0082,-0.008,-0.0078,-0.0106,-0.0106,-0.0105,0,0,0,0,0,-0.0501,-0.0497,-0.0492,-0.0486,-0.0436,-0.0395,-0.0385,-0.0351,-0.0349,-0.0335,-0.0295,-0.0285,-0.0182,-0.0197,-0.0186,-0.0176,-0.0083,-0.008,-0.0078,-0.0107,-0.0106,-0.0105,0,0,0,0,0,0,-0.0524,-0.0491,-0.0484,-0.0471,-0.0438,-0.0387,-0.0372,-0.0355,-0.0312,-0.0311,-0.027,-0.0257,-0.0212,-0.0187,-0.0205,-0.0133,-0.0131,-0.0127,-0.0157,-0.0155,-0.0155,-0.0173,-0.019,0,0,0,0,0,-0.0532,-0.0523,-0.0484,-0.0475,-0.0459,-0.0419,-0.04,-0.0379,-0.0338,-0.0319,-0.0281,-0.0238,-0.0193,-0.0171,-0.0127,-0.009,-0.0066,-0.0076,-0.0075,-0.0075,-0.0081,-0.003,-0.0026,-0.0069,-0.0069,-0.0069,0,0,-0.0539,-0.0522,-0.0516,-0.048,-0.0452,-0.0428,-0.0407,-0.0378,-0.036,-0.0316,-0.0276,-0.0234,-0.0181,-0.0134,-0.0113,-0.0114,-0.0049,-0.0072,-0.0072,-0.0078,-0.0028,-0.0023,-0.002,-0.0068,-0.0068,-0.0068,0,0,-0.0547,-0.0532,-0.0525,-0.05,-0.0465,-0.0437,-0.0433,-0.0383,-0.036,-0.0318,-0.028,-0.0232,-0.017,-0.0125,-0.0097,-0.0067,-0.0045,-0.0055,-0.0069,-0.002,-0.0017,-0.0013,0.0021,0.0028,-0.0057,-0.0057,-0.0057,0,-0.0558,-0.0549,-0.0516,-0.05,-0.0486,-0.0446,-0.0433,-0.0398,-0.034,-0.032,-0.0311,-0.0207,-0.0165,-0.0104,-0.0092,-0.0067,-0.0042,-0.008,-0.0021,-0.0017,-0.0013,0.0021,0.0029,-0.0058,-0.0058,-0.0058,-0.0058,0,-0.0556,-0.0551,-0.0543,-0.0515,-0.049,-0.0474,-0.0427,-0.0399,-0.0374,-0.0337,-0.0276,-0.0211,-0.0154,-0.0128,-0.0101,-0.0049,-0.0041,-0.0027,-0.003,-0.0011,0.0025,0.0033,-0.006,-0.006,-0.0059,-0.0059,0,0,-0.0574,-0.055,-0.0548,-0.055,-0.0502,-0.0485,-0.0449,-0.0404,-0.0387,-0.0324,-0.0292,-0.0208,-0.0178,-0.0144,-0.0099,-0.0055,-0.0004,-0.0036,-0.0033,-0.0015,0.0094,0.0098,0.0108,0.0018,0.002,0.0021,0.0107,0,-0.0586,-0.0587,-0.0558,-0.0555,-0.0553,-0.0505,-0.0478,-0.0432,-0.0387,-0.034,-0.0267,-0.0216,-0.0182,-0.0158,-0.0106,-0.0027,0.0017,-0.0029,0.0084,0.0088,0.0078,0.0118,0.0094,0.0169,0.0115,0.0117,0.0118,0,-0.0594,-0.0599,-0.061,-0.0596,-0.0588,-0.0575,-0.0536,-0.0504,-0.0423,-0.0386,-0.0319,-0.0259,-0.0177,-0.0157,-0.0022,-0.0055,0.0013,0.0071,0.0077,0.0094,0.0107,0.0144,0.0186,0.0132,0.0131,0.013,0.0129,0,-0.0647,-0.0633,-0.0656,-0.0649,-0.062,-0.0614,-0.0591,-0.0525,-0.0502,-0.0416,-0.0389,-0.028,-0.0228,-0.0127,-0.0003,-0.0012,0.0142,0.0146,0.0215,0.0216,0.0225,0.0224,0.0238,0.0238,0.0238,0.0238,0.0238,0,-0.0685,-0.0698,-0.0689,-0.0705,-0.0719,-0.0674,-0.0669,-0.0625,-0.0564,-0.0532,-0.0427,-0.0371,-0.0219,-0.0109,-0.0006,0.0133,0.0143,0.0219,0.0244,0.0215,0.0212,0.0201,0.0196,0.0241,0.024,0.024,0.0239,0,-0.0746,-0.074,-0.0764,-0.0754,-0.0752,-0.0764,-0.0732,-0.0718,-0.0657,-0.0613,-0.0589,-0.0434,-0.0272,-0.0121,0.0062,0.0127,0.026,0.0305,0.0254,0.0271,0.0297,0.029,0.0385,0.0386,0.0386,0.0387,0.0388,0,-0.0782,-0.0806,-0.0818,-0.083,-0.0831,-0.0836,-0.0831,-0.0776,-0.0754,-0.0644,-0.0621,-0.0454,-0.031,-0.0043,0.0126,0.0311,0.0316,0.036,0.034,0.0301,0.0316,0.0306,0.0298,0.0344,0.0344,0.0345,0.0345,0,-0.0847,-0.0851,-0.0869,-0.0899,-0.091,-0.0914,-0.0902,-0.0898,-0.0821,-0.0774,-0.0644,-0.0519,-0.0239,-0.0009,0.0214,0.0307,0.0327,0.0367,0.0365,0.0302,0.0268,0.028,0.0272,0.0346,0.0346,0.0346,0.0346,0.0346,-0.0885,-0.0909,-0.0927,-0.0952,-0.0964,-0.0968,-0.0964,-0.093,-0.0892,-0.0773,-0.0672,-0.0454,-0.0249,0.0113,0.0258,0.0389,0.0385,0.0394,0.0392,0.039,0.0362,0.033,0.0414,0.0414,0.0415,0.0415,0.0415,0,-0.0922,-0.0936,-0.0969,-0.0989,-0.1005,-0.1001,-0.0986,-0.095,-0.0892,-0.0747,-0.0614,-0.0373,-0.0125,0.0112,0.0327,0.0421,0.0406,0.0426,0.0391,0.0389,0.0387,0.0356,0.0409,0.0409,0.041,0.041,0,0,-0.0934,-0.0969,-0.0983,-0.1011,-0.1023,-0.102,-0.1005,-0.0939,-0.0826,-0.066,-0.0492,-0.0316,-0.0059,0.0078,0.021,0.0333,0.0328,0.0332,0.0322,0.0262,0.0259,0.0352,0.0301,0,0,0,0,0]}],[{"header":{"parameterUnit":"m.s-1","parameterCategory":2,"la1":30.2991,"la2":30.254,"lo1":-89.0895,"lo2":-89.0444,"dy":0.0017,"dx":0.0017,"nx":28,"ny":28,"refTime":"2023-07-31T21:00:00:Z","depth":"4","parameterNumber":2,"parameterNumberName":"U-component_of_CURRENTS"},"data":[0,0,0,0,0,0,0,0,0,0,0,0,0,0,0,0,0,0,0,0,0,0,0,0,0,0,0,0,0,0,0,0,0,0,0,0,0,0,0,0,0,0,0,0,0,0,0,0,0,0,0,0,0,0,0,0,0,0,-0.1178,-0.1179,0,-0.1201,-0.1201,-0.1201,-0.1233,-0.1234,-0.1235,-0.1236,-0.1258,-0.1258,-0.1258,0,0,0,0,0,0,0,0,0,0,0,0,0,-0.1159,-0.1159,-0.1178,-0.1179,-0.1179,-0.1201,-0.1201,-0.1201,-0.1233,-0.1234,-0.1235,-0.1236,-0.1258,-0.1258,-0.1258,0,0,0,0,0,0,0,0,0,0,0,0,0,-0.1171,-0.1159,-0.1178,-0.12,-0.1202,-0.1201,-0.1201,-0.1201,-0.1233,-0.1234,-0.1235,-0.1237,-0.1259,-0.1258,-0.1258,-0.1233,0,0,-0.1258,-0.1257,0,0,0,0,0,0,0,0,-0.117,-0.1171,-0.1196,-0.1198,-0.1201,-0.1218,-0.1203,-0.1213,-0.1233,-0.1219,-0.1236,-0.1237,-0.1246,-0.1247,-0.1245,-0.1234,-0.1235,-0.1258,-0.1257,-0.1257,-0.1257,0,0,0,0,0,0,0,-0.1169,-0.117,-0.1185,-0.1197,-0.12,-0.1208,-0.121,-0.1205,-0.1223,-0.122,-0.1223,-0.1229,-0.1247,-0.1245,-0.1245,-0.1236,-0.1258,-0.1257,-0.1257,-0.1257,-0.1299,-0.13,0,0,0,0,0,0,-0.117,-0.1169,-0.1184,-0.1186,-0.1191,-0.1207,-0.121,-0.1209,-0.1223,-0.1227,-0.1228,-0.1231,-0.1244,-0.1246,-0.1246,-0.1297,-0.1257,-0.1257,-0.1257,-0.1297,-0.1299,-0.13,0,0,0,0,0,0,-0.117,-0.1171,-0.1183,-0.1181,-0.1183,-0.1207,-0.1205,-0.1209,-0.123,-0.123,-0.1234,-0.1248,-0.1245,-0.1247,-0.1271,-0.1295,-0.1257,-0.1257,-0.1296,-0.1298,-0.1299,-0.1348,0,0,0,0,0,0,-0.1169,-0.117,-0.1176,-0.118,-0.1183,-0.1199,-0.1204,-0.1209,-0.1232,-0.1236,-0.1248,-0.125,-0.1246,-0.1272,-0.1271,-0.1294,-0.1257,-0.1294,-0.1297,-0.1299,-0.1345,-0.1351,-0.1356,0,0,0,0,0,-0.1168,-0.1171,-0.1176,-0.1179,-0.1188,-0.12,-0.1202,-0.1221,-0.1232,-0.1243,-0.126,-0.1251,-0.1286,-0.1272,-0.1271,-0.1295,-0.1293,-0.1296,-0.1299,-0.1342,-0.135,-0.1356,0,0,0,0,0,0,-0.1171,-0.1175,-0.1181,-0.1187,-0.1201,-0.1207,-0.1222,-0.123,-0.125,-0.1261,-0.1261,-0.1264,-0.1296,-0.1288,-0.1273,-0.1315,-0.129,-0.1292,-0.1323,-0.133,-0.1336,-0.1327,-0.1257,0,0,0,0,0,-0.1172,-0.1174,-0.1183,-0.1191,-0.1201,-0.1214,-0.1224,-0.1235,-0.125,-0.1261,-0.1276,-0.129,-0.13,-0.1311,-0.1318,-0.1335,-0.1305,-0.1352,-0.1358,-0.1363,-0.1356,-0.134,-0.1343,-0.1309,-0.1309,-0.1309,0,0,-0.1176,-0.1179,-0.1182,-0.1192,-0.1205,-0.1228,-0.1223,-0.1245,-0.127,-0.1259,-0.1306,-0.131,-0.131,-0.1337,-0.135,-0.1337,-0.1357,-0.1366,-0.137,-0.1361,-0.1343,-0.1346,-0.1348,-0.1311,-0.1311,-0.131,0,0,-0.1186,-0.119,-0.12,-0.1215,-0.1238,-0.1246,-0.1258,-0.128,-0.13,-0.1333,-0.1337,-0.1356,-0.1378,-0.1382,-0.1385,-0.1424,-0.1388,-0.1434,-0.1456,-0.1441,-0.1443,-0.1445,-0.1405,-0.1403,-0.1438,-0.1438,-0.1438,0,-0.1198,-0.1206,-0.1207,-0.1227,-0.1247,-0.126,-0.1286,-0.1304,-0.1336,-0.1348,-0.136,-0.1391,-0.1397,-0.1415,-0.1436,-0.1437,-0.1412,-0.1429,-0.1447,-0.1448,-0.1449,-0.1408,-0.1404,-0.144,-0.144,-0.144,-0.144,0,-0.1212,-0.1234,-0.1245,-0.1274,-0.1293,-0.1318,-0.1343,-0.137,-0.1396,-0.1408,-0.144,-0.1447,-0.1459,-0.1473,-0.1469,-0.1482,-0.1457,-0.1455,-0.1425,-0.1455,-0.141,-0.1405,-0.1444,-0.1443,-0.1442,-0.1442,0,0,-0.1206,-0.1248,-0.1256,-0.1277,-0.1321,-0.1333,-0.138,-0.141,-0.1429,-0.1466,-0.1484,-0.1516,-0.151,-0.1512,-0.1509,-0.1504,-0.1493,-0.1487,-0.1485,-0.1439,-0.1439,-0.1323,-0.1306,-0.1495,-0.1495,-0.1494,-0.1402,0,-0.1225,-0.1264,-0.1283,-0.1333,-0.1357,-0.1386,-0.142,-0.1449,-0.1473,-0.1495,-0.1504,-0.1519,-0.1527,-0.1529,-0.1529,-0.1497,-0.1484,-0.1516,-0.1423,-0.142,-0.1307,-0.1299,-0.1494,-0.1399,-0.1398,-0.1397,-0.1396,0,-0.1232,-0.1258,-0.1307,-0.1351,-0.1365,-0.1398,-0.1439,-0.147,-0.1498,-0.1513,-0.153,-0.153,-0.153,-0.1533,-0.1492,-0.1511,-0.148,-0.1457,-0.1452,-0.1321,-0.1295,-0.1365,-0.1388,-0.1388,-0.1389,-0.139,-0.139,0,-0.1209,-0.127,-0.1308,-0.1329,-0.1385,-0.1412,-0.144,-0.1476,-0.1484,-0.1518,-0.1514,-0.1525,-0.1511,-0.1491,-0.1442,-0.1469,-0.1376,-0.1404,-0.1269,-0.1259,-0.1371,-0.1371,-0.1372,-0.1373,-0.1373,-0.1373,-0.1373,0,-0.1207,-0.1238,-0.1303,-0.1324,-0.1349,-0.1401,-0.1423,-0.1451,-0.1478,-0.1466,-0.1514,-0.1489,-0.1502,-0.1451,-0.1425,-0.1305,-0.1356,-0.1253,-0.1224,-0.1393,-0.1397,-0.1367,-0.1367,-0.137,-0.137,-0.1371,-0.1372,0,-0.1168,-0.1221,-0.1255,-0.1322,-0.1338,-0.1352,-0.1389,-0.1394,-0.1439,-0.1422,-0.1427,-0.1444,-0.1383,-0.136,-0.1304,-0.1251,-0.1173,-0.1123,-0.1272,-0.1257,-0.1076,-0.1081,-0.0969,-0.0964,-0.0959,-0.0956,-0.0953,0,-0.1148,-0.1169,-0.1228,-0.1231,-0.1262,-0.1292,-0.1299,-0.1358,-0.1353,-0.1372,-0.1343,-0.1314,-0.1307,-0.1123,-0.1133,-0.1043,-0.104,-0.0985,-0.1068,-0.105,-0.1034,-0.1045,-0.1055,-0.0946,-0.0945,-0.0944,-0.0943,0,-0.1096,-0.1125,-0.114,-0.1149,-0.1164,-0.1171,-0.119,-0.1175,-0.1226,-0.1278,-0.1213,-0.1168,-0.1091,-0.1045,-0.0963,-0.0916,-0.1015,-0.0942,-0.0952,-0.103,-0.1021,-0.1012,-0.1027,-0.0928,-0.0931,-0.0932,-0.0933,0,-0.1038,-0.1018,-0.1036,-0.1028,-0.1047,-0.1031,-0.1064,-0.105,-0.1056,-0.1098,-0.1068,-0.1053,-0.1077,-0.0975,-0.0904,-0.0834,-0.0843,-0.0822,-0.0839,-0.0855,-0.0859,-0.0834,-0.0639,0,0,0,0,0,-0.0961,-0.0914,-0.0907,-0.0888,-0.0912,-0.0922,-0.097,-0.1013,-0.1069,-0.0989,-0.1027,-0.0957,-0.0868,-0.0867,-0.0769,-0.0844,-0.0839,-0.0726,-0.0825,-0.0848,-0.0865,-0.0879,0,0,0,0,0,0,-0.0898,-0.0877,-0.086,-0.0777,-0.0745,-0.0756,-0.0787,-0.084,-0.0808,-0.0874,-0.0835,-0.0876,-0.0808,-0.0893,-0.0739,-0.0733,-0.0769,-0.0723,-0.0719,-0.0838,-0.0854,-0.0867,-0.0888,0,0,0,0,0]},{"header":{"parameterUnit":"m.s-1","parameterCategory":2,"la1":30.2991,"la2":30.254,"lo1":-89.0895,"lo2":-89.0444,"dy":0.0017,"dx":0.0017,"nx":28,"ny":28,"refTime":"2023-07-31T21:00:00:Z","depth":"4","parameterNumber":3,"parameterNumberName":"V-component_of_CURRENTS"},"data":[0,0,0,0,0,0,0,0,0,0,0,0,0,0,0,0,0,0,0,0,0,0,0,0,0,0,0,0,0,0,0,0,0,0,0,0,0,0,0,0,0,0,0,0,0,0,0,0,0,0,0,0,0,0,0,0,0,0,-0.0324,-0.0323,0,-0.0273,-0.0273,-0.0272,-0.0262,-0.0262,-0.0262,-0.0263,-0.023,-0.0228,-0.0227,0,0,0,0,0,0,0,0,0,0,0,0,0,-0.0358,-0.0358,-0.0324,-0.0323,-0.0323,-0.0273,-0.0273,-0.0272,-0.0262,-0.0262,-0.0263,-0.0263,-0.023,-0.0229,-0.0227,0,0,0,0,0,0,0,0,0,0,0,0,0,-0.0328,-0.0358,-0.0324,-0.0312,-0.031,-0.0274,-0.0273,-0.0272,-0.0261,-0.0262,-0.0263,-0.0263,-0.0231,-0.0229,-0.0227,-0.0201,0,0,-0.0221,-0.022,0,0,0,0,0,0,0,0,-0.033,-0.0327,-0.0314,-0.0313,-0.0311,-0.0275,-0.0273,-0.0249,-0.0261,-0.0279,-0.0263,-0.0264,-0.0246,-0.0243,-0.0231,-0.02,-0.0198,-0.0221,-0.0219,-0.0219,-0.0218,0,0,0,0,0,0,0,-0.0332,-0.0329,-0.0303,-0.0314,-0.0312,-0.0291,-0.0288,-0.0268,-0.0259,-0.0278,-0.0277,-0.0272,-0.0246,-0.0233,-0.023,-0.0198,-0.0221,-0.0219,-0.0218,-0.0217,-0.013,-0.0129,0,0,0,0,0,0,-0.0342,-0.0331,-0.0305,-0.0302,-0.0323,-0.029,-0.0287,-0.0285,-0.0259,-0.0256,-0.0272,-0.0272,-0.0236,-0.0232,-0.0229,-0.0193,-0.0219,-0.0217,-0.0216,-0.0131,-0.013,-0.0129,0,0,0,0,0,0,-0.0343,-0.034,-0.0307,-0.0316,-0.031,-0.029,-0.0288,-0.0284,-0.0278,-0.0255,-0.0252,-0.0271,-0.0236,-0.0232,-0.0208,-0.0192,-0.0216,-0.0214,-0.0132,-0.0131,-0.0129,-0.0123,0,0,0,0,0,0,-0.0344,-0.0341,-0.0344,-0.0316,-0.031,-0.029,-0.0287,-0.0283,-0.0274,-0.0274,-0.0253,-0.025,-0.0236,-0.0211,-0.0206,-0.019,-0.0213,-0.0134,-0.0132,-0.013,-0.0125,-0.0122,-0.0119,0,0,0,0,0,-0.0346,-0.0346,-0.0345,-0.0342,-0.0315,-0.029,-0.0285,-0.0271,-0.0274,-0.0269,-0.025,-0.0251,-0.0194,-0.0208,-0.0203,-0.0186,-0.0135,-0.0132,-0.013,-0.0126,-0.0122,-0.0119,0,0,0,0,0,0,-0.0364,-0.0344,-0.0343,-0.0338,-0.0319,-0.0289,-0.0284,-0.0275,-0.0255,-0.0258,-0.0239,-0.0233,-0.0205,-0.0194,-0.0211,-0.0152,-0.0163,-0.016,-0.0162,-0.0158,-0.0155,-0.0164,-0.0211,0,0,0,0,0,-0.0369,-0.0367,-0.0343,-0.0341,-0.0333,-0.031,-0.03,-0.029,-0.0268,-0.026,-0.0242,-0.0218,-0.0187,-0.0175,-0.015,-0.0121,-0.0112,-0.0104,-0.0101,-0.0099,-0.01,-0.0065,-0.0059,-0.012,-0.012,-0.012,0,0,-0.0377,-0.0366,-0.0366,-0.0345,-0.033,-0.0313,-0.0305,-0.0291,-0.0274,-0.0259,-0.0234,-0.021,-0.0177,-0.0141,-0.0127,-0.0133,-0.0076,-0.0095,-0.0094,-0.0096,-0.0061,-0.0056,-0.005,-0.0118,-0.0119,-0.0119,0,0,-0.0383,-0.0381,-0.0377,-0.0361,-0.034,-0.0321,-0.032,-0.029,-0.0277,-0.0249,-0.0226,-0.019,-0.0157,-0.0118,-0.0097,-0.0061,-0.0062,-0.0057,-0.0047,-0.0013,-0.0008,-0.0003,0.0011,0.0017,-0.0054,-0.0054,-0.0054,0,-0.0393,-0.0387,-0.0371,-0.0359,-0.0349,-0.0327,-0.0316,-0.0291,-0.0257,-0.0242,-0.0244,-0.017,-0.0141,-0.0084,-0.0066,-0.0054,-0.0047,-0.0067,-0.001,-0.0005,-0.0001,0.0013,0.0019,-0.0054,-0.0054,-0.0054,-0.0054,0,-0.0388,-0.0386,-0.0382,-0.0362,-0.0346,-0.0335,-0.0301,-0.0283,-0.0268,-0.0241,-0.0193,-0.0147,-0.0107,-0.0082,-0.0062,-0.0008,-0.0018,-0.0013,-0.0024,0.0005,0.0018,0.0025,-0.0053,-0.0053,-0.0053,-0.0054,0,0,-0.0404,-0.0384,-0.0385,-0.0388,-0.035,-0.0343,-0.0306,-0.0271,-0.0263,-0.0213,-0.0191,-0.0111,-0.0095,-0.0068,-0.0034,0.0008,0.0054,0.0009,0.001,0.0014,0.0112,0.0085,0.0089,0.0063,0.0064,0.0065,0.0105,0,-0.0408,-0.0406,-0.0382,-0.0379,-0.0378,-0.0344,-0.0321,-0.0285,-0.0256,-0.0228,-0.016,-0.0129,-0.0087,-0.0077,-0.0021,0.0029,0.0071,0.0041,0.009,0.0091,0.0057,0.0096,0.0069,0.011,0.0111,0.0112,0.0113,0,-0.041,-0.0413,-0.0417,-0.0411,-0.0406,-0.0398,-0.0375,-0.0349,-0.0289,-0.0267,-0.021,-0.017,-0.0089,-0.0071,0.0041,0.0014,0.0065,0.0107,0.011,0.0086,0.0077,0.0077,0.0125,0.0124,0.0123,0.0122,0.0121,0,-0.045,-0.0438,-0.0453,-0.0448,-0.0429,-0.0428,-0.0416,-0.0369,-0.0358,-0.0299,-0.0293,-0.0192,-0.0162,-0.007,0.003,0.003,0.0138,0.0146,0.0173,0.0171,0.0177,0.0172,0.0225,0.0225,0.0225,0.0225,0.0225,0,-0.0468,-0.0482,-0.0484,-0.0495,-0.052,-0.0484,-0.0497,-0.0468,-0.043,-0.0416,-0.0329,-0.0305,-0.0161,-0.008,0.0015,0.011,0.0128,0.018,0.0186,0.0178,0.0173,0.0181,0.0175,0.0227,0.0226,0.0226,0.0226,0,-0.0511,-0.0507,-0.0536,-0.0538,-0.0545,-0.0569,-0.0567,-0.0566,-0.0529,-0.0511,-0.0496,-0.0391,-0.028,-0.0139,0.0007,0.0072,0.0176,0.0205,0.0175,0.0177,0.0187,0.0181,0.0235,0.0235,0.0234,0.0234,0.0234,0,-0.053,-0.0552,-0.0589,-0.0614,-0.0622,-0.0648,-0.0657,-0.0625,-0.0615,-0.0563,-0.0551,-0.0451,-0.0363,-0.0173,-0.0035,0.0143,0.0171,0.0207,0.022,0.0191,0.0192,0.0186,0.0182,0.0233,0.0233,0.0233,0.0233,0,-0.0574,-0.0597,-0.0623,-0.0676,-0.0706,-0.0728,-0.0735,-0.0734,-0.0682,-0.0665,-0.0581,-0.0471,-0.0349,-0.0182,-0.0043,0.0083,0.0176,0.0204,0.0205,0.0219,0.0189,0.0189,0.0185,0.0232,0.0232,0.0232,0.0232,0,-0.0612,-0.0645,-0.0684,-0.0725,-0.0765,-0.0775,-0.0778,-0.0742,-0.0724,-0.0644,-0.0628,-0.0481,-0.0393,-0.0216,-0.0093,0.0035,0.0067,0.0097,0.0105,0.0108,0.0063,0.0006,0.0003,0,0,0,0,0,-0.064,-0.0673,-0.0719,-0.0759,-0.0795,-0.0809,-0.0806,-0.079,-0.075,-0.069,-0.0647,-0.0522,-0.033,-0.0255,-0.0127,-0.0111,0.0076,0.0037,0.0111,0.0224,0.0226,0.0193,0,0,0,0,0,0,-0.0657,-0.071,-0.0724,-0.077,-0.0796,-0.0824,-0.0817,-0.0789,-0.0738,-0.0688,-0.0575,-0.0522,-0.0325,-0.0397,-0.0135,-0.0101,-0.0044,0.0129,0.0131,0.0223,0.0225,0.0226,0.0193,0,0,0,0,0]}]]